[[{"header":{"parameterUnit":"m.s-1","parameterCategory":1,"la1":30.2991,"la2":30.254,"lo1":-89.0895,"lo2":-89.0444,"dy":0.0017,"dx":0.0017,"nx":28,"ny":28,"refTime":"2025-08-16T03:00:00:Z","depth":0,"parameterNumber":2,"parameterNumberName":"U-component_of_WINDS"},"data":[0,0,0,0,0,0,0,0,0,0,0,0,0,0,0,0,0,0,0,0,0,0,0,0,0,0,0,0,0,0,0,0,0,0,0,0,0,0,0,0,0,0,0,0,0,0,0,0,0,0,0,0,0,0,0,0,0,0,0.0831,0.0833,0,0.0984,0.0986,0.0987,0.1012,0.101,0.1009,0.1008,0.1168,0.1173,0.1179,0,0,0,0,0,0,0,0,0,0,0,0,0,0.0564,0.0568,0.0831,0.0833,0.0835,0.0984,0.0986,0.0988,0.1012,0.101,0.1009,0.1007,0.1166,0.1173,0.1179,0,0,0,0,0,0,0,0,0,0,0,0,0,0.0695,0.057,0.0831,0.0865,0.0869,0.0983,0.0986,0.0988,0.1012,0.101,0.1008,0.1006,0.1164,0.1172,0.118,0.1273,0,0,0.1206,0.1209,0,0,0,0,0,0,0,0,0.0687,0.0704,0.0858,0.0863,0.0868,0.0977,0.095,0.1084,0.1013,0.0958,0.1008,0.1005,0.1106,0.1119,0.1153,0.128,0.1287,0.1207,0.1212,0.1215,0.1217,0,0,0,0,0,0,0,0.0678,0.0698,0.0892,0.086,0.0866,0.0874,0.089,0.0976,0.1042,0.0963,0.0965,0.0982,0.1109,0.1144,0.1156,0.1289,0.1206,0.1214,0.1219,0.1222,0.1501,0.1503,0,0,0,0,0,0,0.0662,0.069,0.0887,0.0896,0.077,0.088,0.0898,0.0944,0.1041,0.1054,0.0984,0.0983,0.1131,0.1147,0.1162,0.1277,0.1215,0.1223,0.1228,0.1498,0.1501,0.1504,0,0,0,0,0,0,0.0656,0.068,0.0881,0.0794,0.082,0.0887,0.0938,0.0948,0.0984,0.1057,0.1069,0.1008,0.113,0.1151,0.1245,0.1283,0.1227,0.1234,0.1495,0.1499,0.1503,0.1507,0,0,0,0,0,0,0.0649,0.0677,0.0712,0.0794,0.0825,0.096,0.094,0.0952,0.0997,0.0998,0.1083,0.1095,0.113,0.1232,0.1253,0.1293,0.1241,0.1492,0.1497,0.1501,0.1503,0.151,0.1515,0,0,0,0,0,0.0639,0.0708,0.0714,0.0737,0.0869,0.0962,0.0979,0.1017,0.1,0.1037,0.1084,0.1092,0.1275,0.1242,0.1265,0.1309,0.149,0.1496,0.1501,0.1501,0.1509,0.1515,0,0,0,0,0,0,0.063,0.0719,0.0727,0.0824,0.0885,0.0966,0.1012,0.1024,0.1092,0.1089,0.1135,0.1154,0.1246,0.1287,0.1248,0.1403,0.1381,0.1392,0.1373,0.1381,0.1387,0.1376,0.1248,0,0,0,0,0,0.0639,0.0705,0.078,0.0859,0.0889,0.0945,0.0987,0.1011,0.1076,0.1102,0.1156,0.1221,0.1292,0.1339,0.1409,0.1509,0.1528,0.1551,0.1556,0.1561,0.157,0.1626,0.1637,0.1522,0.1522,0.1522,0,0,0.0659,0.0716,0.0756,0.0859,0.0909,0.0978,0.0967,0.104,0.1092,0.1114,0.1206,0.1248,0.1323,0.142,0.1466,0.1457,0.1606,0.1568,0.1571,0.1578,0.1633,0.1644,0.1653,0.1525,0.1525,0.1524,0,0,0.0731,0.078,0.0851,0.0901,0.0976,0.1013,0.103,0.1109,0.1137,0.123,0.1248,0.1311,0.1433,0.1486,0.1529,0.162,0.163,0.1641,0.1673,0.1728,0.1737,0.1745,0.1778,0.1789,0.165,0.165,0.165,0,0.0747,0.085,0.0887,0.0959,0.1005,0.1026,0.1099,0.1146,0.1241,0.1272,0.126,0.1415,0.1467,0.1577,0.1599,0.1632,0.1654,0.1632,0.1732,0.1741,0.1749,0.1781,0.1793,0.165,0.165,0.165,0.165,0,0.0866,0.0937,0.0986,0.1075,0.1126,0.1199,0.1248,0.1295,0.1314,0.1352,0.1447,0.1509,0.1593,0.162,0.164,0.1734,0.1726,0.1723,0.1702,0.176,0.1791,0.1804,0.1652,0.1651,0.1651,0.1651,0,0,0.0937,0.1045,0.1063,0.1103,0.1188,0.1244,0.1318,0.1398,0.1438,0.1502,0.1566,0.1669,0.1666,0.1715,0.1741,0.1788,0.1857,0.178,0.1782,0.1792,0.1964,0.1966,0.198,0.1864,0.1867,0.1869,0.1958,0,0.1019,0.115,0.1185,0.1296,0.1363,0.1384,0.1449,0.1508,0.1545,0.1609,0.1651,0.1723,0.1714,0.1743,0.1791,0.1838,0.1892,0.1832,0.1925,0.1928,0.1906,0.1996,0.1999,0.208,0.197,0.1972,0.1974,0,0.1132,0.1198,0.1315,0.1391,0.142,0.1477,0.1553,0.1613,0.1681,0.1705,0.1759,0.178,0.1859,0.1833,0.1943,0.1901,0.1941,0.197,0.1974,0.1985,0.1955,0.201,0.2107,0.2119,0.1993,0.1992,0.199,0,0.1173,0.1291,0.1376,0.141,0.15,0.154,0.158,0.1645,0.1691,0.1758,0.1789,0.1864,0.1906,0.1964,0.2006,0.1983,0.2112,0.209,0.2135,0.2134,0.2162,0.216,0.2268,0.2187,0.2187,0.2187,0.2186,0,0.1262,0.1333,0.1396,0.1448,0.1529,0.1569,0.1648,0.1689,0.1747,0.1809,0.1832,0.189,0.1941,0.2006,0.2039,0.2125,0.2143,0.2166,0.2174,0.2164,0.2161,0.2192,0.2187,0.219,0.2189,0.2188,0.2188,0,0.1321,0.1366,0.146,0.1537,0.1558,0.1615,0.1681,0.1734,0.1772,0.1849,0.187,0.193,0.2008,0.2055,0.2154,0.2176,0.2271,0.2276,0.2247,0.2251,0.2294,0.229,0.2426,0.2446,0.2351,0.2351,0.2352,0,0.1375,0.143,0.1512,0.1554,0.1594,0.1662,0.1709,0.1751,0.1798,0.1879,0.1922,0.2001,0.2066,0.2189,0.2242,0.2318,0.2326,0.2368,0.2338,0.2326,0.2327,0.2323,0.2329,0.2374,0.2375,0.2375,0.2376,0,0.1465,0.1485,0.155,0.1623,0.1678,0.1738,0.1798,0.1832,0.1884,0.1937,0.2015,0.2066,0.2165,0.2244,0.2324,0.2366,0.238,0.2385,0.2399,0.239,0.2371,0.2382,0.2262,0.2382,0.2381,0.2381,0.238,0.238,0.1524,0.1574,0.164,0.1712,0.1761,0.1816,0.1869,0.1914,0.198,0.2063,0.2084,0.2167,0.2234,0.2342,0.2386,0.2452,0.2446,0.2467,0.2472,0.2477,0.2478,0.236,0.2467,0.2467,0.2467,0.2466,0.2466,0,0.1616,0.1659,0.1725,0.1808,0.1865,0.1871,0.1938,0.1986,0.2058,0.2118,0.2181,0.2272,0.2348,0.2406,0.2484,0.2526,0.2534,0.2545,0.2543,0.2552,0.2479,0.2459,0.2537,0.2537,0.2537,0.2537,0.2537,0.2537,0.1671,0.1756,0.1783,0.1892,0.1935,0.2016,0.2053,0.2105,0.2153,0.2253,0.2315,0.2352,0.2413,0.2495,0.2565,0.258,0.2608,0.2617,0.2634,0.2565,0.2557,0.255,0.2531,0.2623,0.2623,0.2702,0.2702,0.2703]},{"header":{"parameterUnit":"m.s-1","parameterCategory":1,"la1":30.2991,"la2":30.254,"lo1":-89.0895,"lo2":-89.0444,"dy":0.0017,"dx":0.0017,"nx":28,"ny":28,"refTime":"2025-08-16T03:00:00:Z","depth":0,"parameterNumber":3,"parameterNumberName":"V-component_of_WINDS"},"data":[0,0,0,0,0,0,0,0,0,0,0,0,0,0,0,0,0,0,0,0,0,0,0,0,0,0,0,0,0,0,0,0,0,0,0,0,0,0,0,0,0,0,0,0,0,0,0,0,0,0,0,0,0,0,0,0,0,0,0.094,0.0941,0,0.0969,0.097,0.097,0.0925,0.0923,0.0922,0.092,0.0951,0.0953,0.0956,0,0,0,0,0,0,0,0,0,0,0,0,0,0.0844,0.0846,0.094,0.0941,0.0941,0.0969,0.097,0.097,0.0925,0.0923,0.0921,0.092,0.095,0.0953,0.0956,0,0,0,0,0,0,0,0,0,0,0,0,0,0.0881,0.0847,0.094,0.0922,0.0921,0.0969,0.097,0.097,0.0926,0.0923,0.0921,0.0919,0.095,0.0953,0.0956,0.1024,0,0,0.0967,0.0968,0,0,0,0,0,0,0,0,0.0879,0.0885,0.0924,0.0923,0.0922,0.0941,0.0947,0.0988,0.0926,0.0924,0.092,0.0918,0.095,0.0953,0.0964,0.1026,0.1027,0.0967,0.0969,0.0971,0.0972,0,0,0,0,0,0,0,0.0877,0.0883,0.0952,0.0925,0.0923,0.0912,0.0914,0.0955,0.095,0.0924,0.0921,0.0925,0.0949,0.0961,0.0964,0.1028,0.0967,0.097,0.0972,0.0973,0.1142,0.1145,0,0,0,0,0,0,0.0876,0.0881,0.0951,0.0953,0.0894,0.0915,0.0918,0.0937,0.0949,0.0949,0.0927,0.0922,0.0956,0.096,0.0965,0.1042,0.0971,0.0974,0.0976,0.114,0.1143,0.1146,0,0,0,0,0,0,0.0874,0.0883,0.095,0.0916,0.0924,0.092,0.0941,0.0939,0.0951,0.0951,0.095,0.094,0.0954,0.096,0.1009,0.1042,0.0975,0.0978,0.1137,0.1141,0.1144,0.1198,0,0,0,0,0,0,0.0872,0.0882,0.0909,0.0917,0.0926,0.0994,0.0943,0.0941,0.0957,0.0952,0.0963,0.0963,0.0953,0.1004,0.1012,0.1046,0.0981,0.1134,0.1139,0.1143,0.1193,0.1203,0.1212,0,0,0,0,0,0.0869,0.0924,0.091,0.0919,0.0959,0.0996,0.1001,0.0988,0.096,0.0985,0.0985,0.0962,0.1038,0.1009,0.1018,0.1053,0.1132,0.1137,0.1143,0.1189,0.1201,0.1212,0,0,0,0,0,0,0.0922,0.0925,0.091,0.097,0.0983,0.0988,0.102,0.1002,0.1023,0.1017,0.1001,0.1004,0.1055,0.106,0.1028,0.1118,0.108,0.1088,0.1112,0.1124,0.1133,0.1129,0.0984,0,0,0,0,0,0.094,0.097,0.0972,0.1024,0.1031,0.1025,0.1041,0.1029,0.1042,0.1047,0.1051,0.1064,0.109,0.1108,0.1132,0.1195,0.1194,0.1223,0.1232,0.124,0.1245,0.1274,0.1286,0.1164,0.1163,0.1163,0,0,0.0979,0.0984,0.1005,0.1035,0.1043,0.1073,0.103,0.1065,0.1086,0.1053,0.1097,0.11,0.1114,0.1168,0.1193,0.1174,0.1279,0.1247,0.1253,0.1254,0.1281,0.1293,0.1303,0.1167,0.1167,0.1166,0,0,0.1064,0.1073,0.1115,0.1124,0.1137,0.1131,0.1142,0.1149,0.1149,0.1194,0.1168,0.1194,0.1241,0.125,0.1261,0.1346,0.1325,0.1355,0.1402,0.1431,0.144,0.1448,0.1475,0.1485,0.1362,0.1362,0.1362,0,0.111,0.1155,0.114,0.1175,0.1187,0.1158,0.1199,0.1209,0.123,0.1238,0.1217,0.1272,0.128,0.1334,0.1354,0.1366,0.1375,0.1353,0.144,0.1448,0.1456,0.1481,0.1491,0.1365,0.1365,0.1364,0.1364,0,0.1209,0.124,0.1273,0.1291,0.1308,0.1346,0.1336,0.1355,0.1342,0.1339,0.1382,0.139,0.1413,0.1426,0.1415,0.1478,0.1465,0.1443,0.1404,0.1471,0.1494,0.1504,0.137,0.1369,0.1368,0.1367,0,0,0.1328,0.1335,0.1347,0.1353,0.1364,0.1387,0.1424,0.1445,0.146,0.1475,0.1503,0.1542,0.152,0.1532,0.1522,0.1547,0.1609,0.1521,0.1521,0.1533,0.1674,0.1689,0.17,0.1596,0.1598,0.1599,0.1672,0,0.1409,0.147,0.1457,0.1516,0.1542,0.1514,0.1545,0.1554,0.1552,0.1573,0.1571,0.1597,0.1568,0.1574,0.1599,0.1597,0.1637,0.1592,0.162,0.1621,0.1613,0.1713,0.1729,0.1797,0.1681,0.1683,0.1684,0,0.1512,0.1528,0.159,0.1592,0.1603,0.1631,0.1648,0.167,0.1679,0.1675,0.1688,0.1671,0.1705,0.1668,0.1713,0.1683,0.1694,0.1694,0.1697,0.1696,0.1654,0.1712,0.1819,0.1828,0.1699,0.1698,0.1697,0,0.1587,0.1625,0.1665,0.1672,0.1678,0.1697,0.17,0.1707,0.172,0.1735,0.1743,0.1763,0.1773,0.1788,0.1776,0.1751,0.1822,0.1785,0.1818,0.1818,0.1832,0.1831,0.1939,0.1845,0.1845,0.1845,0.1845,0,0.1677,0.1715,0.1698,0.1723,0.1764,0.1748,0.1789,0.1789,0.1794,0.1817,0.1795,0.1818,0.1803,0.1824,0.1815,0.1852,0.1858,0.1854,0.1851,0.1854,0.1854,0.1859,0.1852,0.1848,0.1847,0.1846,0.1846,0,0.1768,0.1758,0.18,0.18,0.1801,0.1831,0.1831,0.1853,0.1849,0.1878,0.1884,0.1877,0.19,0.189,0.1916,0.191,0.1955,0.1948,0.1951,0.1948,0.198,0.1975,0.2092,0.2105,0.2006,0.2007,0.2008,0,0.1824,0.1852,0.1854,0.1867,0.1871,0.1894,0.1905,0.1891,0.1904,0.1915,0.1935,0.1956,0.1971,0.2009,0.2006,0.2024,0.2014,0.2054,0.2017,0.2018,0.201,0.2007,0.2008,0.206,0.2061,0.2062,0.2063,0,0.1923,0.1916,0.1934,0.1949,0.1964,0.1975,0.1985,0.1998,0.1983,0.1999,0.2021,0.2033,0.2057,0.2076,0.2092,0.2095,0.2076,0.2075,0.2083,0.2085,0.2084,0.2081,0.1967,0.2072,0.2071,0.207,0.207,0.2069,0.1995,0.2017,0.2021,0.204,0.2046,0.2055,0.2074,0.2071,0.2089,0.2106,0.2096,0.2121,0.2127,0.2146,0.2151,0.217,0.2154,0.2166,0.2169,0.2171,0.2173,0.2084,0.2173,0.2173,0.2173,0.2172,0.2172,0,0.209,0.209,0.2108,0.2121,0.2136,0.2117,0.2126,0.2139,0.2161,0.2168,0.2182,0.2206,0.2225,0.2222,0.2239,0.2254,0.2245,0.2259,0.2256,0.2256,0.2188,0.2178,0.2265,0.2265,0.2265,0.2265,0.2265,0.2265,0.2141,0.2174,0.2168,0.2204,0.2204,0.2227,0.2233,0.2241,0.2245,0.2272,0.2287,0.2285,0.2287,0.2303,0.2319,0.2318,0.2323,0.2339,0.2334,0.227,0.2261,0.2252,0.2242,0.2341,0.2341,0.2399,0.24,0.24]}]]